Time,TemperatureF,DewpointF,PressureIn,WindDirection,WindDirectionDegrees,WindSpeedMPH,WindSpeedGustMPH,Humidity,HourlyPrecipIn,Conditions,Clouds,dailyrainin,SoftwareType,DateUTC
2013-04-18 00:00:00,40.6,36.0,29.85,NE,45,14.0,18.0,83,0.13,,,0.97,meteohub,2013-04-18 05:00:00,
2013-04-18 00:05:00,40.6,36.0,29.85,NE,45,10.0,18.0,83,0.14,,,0.98,meteohub,2013-04-18 05:05:00,
2013-04-18 00:10:00,40.6,36.0,29.84,NE,45,13.0,15.0,83,0.13,,,0.02,meteohub,2013-04-18 05:10:00,
2013-04-18 00:15:00,40.6,36.0,29.84,NE,45,15.0,15.0,83,0.13,,,0.02,meteohub,2013-04-18 05:15:00,
2013-04-18 00:20:00,40.6,36.0,29.84,NE,45,12.0,15.0,83,0.12,,,0.05,meteohub,2013-04-18 05:20:00,
2013-04-18 00:25:00,40.6,36.0,29.83,NE,45,15.0,15.0,83,0.13,,,0.06,meteohub,2013-04-18 05:25:00,
2013-04-18 00:30:00,40.6,36.0,29.83,NE,45,15.0,15.0,83,0.11,,,0.06,meteohub,2013-04-18 05:30:00,
2013-04-18 00:35:00,40.8,36.1,29.81,NE,45,15.0,15.0,83,0.11,,,0.07,meteohub,2013-04-18 05:35:00,
2013-04-18 00:41:00,40.8,36.1,29.81,East,90,13.0,16.0,83,0.11,,,0.07,meteohub,2013-04-18 05:41:00,
2013-04-18 00:46:00,41.0,36.5,29.81,East,90,13.0,16.0,84,0.09,,,0.07,meteohub,2013-04-18 05:46:00,
2013-04-18 00:51:00,41.0,36.3,29.81,East,90,12.0,17.0,83,0.11,,,0.08,meteohub,2013-04-18 05:51:00,
2013-04-18 00:56:00,41.0,36.5,29.80,East,90,17.0,17.0,84,0.09,,,0.08,meteohub,2013-04-18 05:56:00,
2013-04-18 01:01:00,41.0,36.5,29.79,East,90,17.0,17.0,84,0.09,,,0.09,meteohub,2013-04-18 06:01:00,
2013-04-18 01:07:00,41.0,36.5,29.78,East,90,17.0,17.0,84,0.08,,,0.09,meteohub,2013-04-18 06:07:00,
2013-04-18 01:12:00,40.6,36.0,29.78,SE,135,17.0,17.0,83,0.07,,,0.09,meteohub,2013-04-18 06:12:00,
2013-04-18 01:17:00,40.8,36.1,29.77,SE,135,17.0,17.0,83,0.08,,,0.12,meteohub,2013-04-18 06:17:00,
2013-04-18 01:22:00,41.2,36.5,29.76,SE,135,19.0,20.0,83,0.07,,,0.12,meteohub,2013-04-18 06:22:00,
2013-04-18 01:27:00,40.8,36.3,29.76,SE,135,18.0,20.0,84,0.06,,,0.12,meteohub,2013-04-18 06:27:00,
2013-04-18 01:32:00,40.8,36.3,29.75,SE,135,17.0,20.0,84,0.06,,,0.13,meteohub,2013-04-18 06:32:00,
2013-04-18 01:37:00,40.8,36.1,29.74,SE,135,22.0,22.0,83,0.07,,,0.14,meteohub,2013-04-18 06:37:00,
2013-04-18 01:42:00,42.8,38.3,29.73,SE,135,16.0,22.0,84,0.07,,,0.14,meteohub,2013-04-18 06:42:00,
2013-04-18 01:47:00,42.6,38.1,29.71,SE,135,20.0,22.0,84,0.07,,,0.14,meteohub,2013-04-18 06:47:00,
2013-04-18 01:52:00,41.2,36.7,29.70,SE,135,20.0,22.0,84,0.06,,,0.14,meteohub,2013-04-18 06:52:00,
2013-04-18 01:57:00,42.8,38.3,29.70,SE,135,17.0,21.0,84,0.06,,,0.14,meteohub,2013-04-18 06:57:00,
2013-04-18 02:02:00,40.8,36.3,29.70,ENE,68,18.0,21.0,84,0.05,,,0.14,meteohub,2013-04-18 07:02:00,
2013-04-18 02:07:00,41.4,36.9,29.70,SSE,158,16.0,21.0,84,0.05,,,0.14,meteohub,2013-04-18 07:07:00,
2013-04-18 02:12:00,41.5,37.0,29.69,SE,135,17.0,21.0,84,0.04,,,0.14,meteohub,2013-04-18 07:12:00,
2013-04-18 02:17:00,41.9,37.4,29.69,SE,135,15.0,21.0,84,0.02,,,0.14,meteohub,2013-04-18 07:17:00,
2013-04-18 02:22:00,41.7,37.2,29.68,SE,135,21.0,21.0,84,0.02,,,0.14,meteohub,2013-04-18 07:22:00,
2013-04-18 02:27:00,41.7,37.2,29.65,SE,135,21.0,21.0,84,0.01,,,0.14,meteohub,2013-04-18 07:27:00,
2013-04-18 02:33:00,41.7,37.2,29.62,SE,135,20.0,24.0,84,0.02,,,0.15,meteohub,2013-04-18 07:33:00,
2013-04-18 02:38:00,41.9,37.4,29.62,SE,135,23.0,27.0,84,0.01,,,0.15,meteohub,2013-04-18 07:38:00,
2013-04-18 02:43:00,41.9,37.4,29.64,South,180,21.0,27.0,84,0.01,,,0.15,meteohub,2013-04-18 07:43:00,
2013-04-18 02:48:00,42.3,37.8,29.64,SE,135,17.0,27.0,84,0.01,,,0.15,meteohub,2013-04-18 07:48:00,
2013-04-18 02:53:00,42.4,37.9,29.64,South,180,16.0,26.0,84,0.01,,,0.15,meteohub,2013-04-18 07:53:00,
2013-04-18 02:58:00,42.8,38.7,29.64,South,180,15.0,26.0,85,0.02,,,0.17,meteohub,2013-04-18 07:58:00,
2013-04-18 03:03:00,42.8,38.7,29.65,South,180,14.0,19.0,85,0.02,,,0.17,meteohub,2013-04-18 08:03:00,
2013-04-18 03:08:00,42.8,38.7,29.63,South,180,15.0,17.0,85,0.02,,,0.17,meteohub,2013-04-18 08:08:00,
2013-04-18 03:13:00,42.8,38.7,29.62,SE,135,18.0,18.0,85,0.02,,,0.17,meteohub,2013-04-18 08:13:00,
2013-04-18 03:18:00,42.8,38.7,29.63,SSE,158,14.0,18.0,85,0.04,,,0.18,meteohub,2013-04-18 08:18:00,
2013-04-18 03:23:00,42.8,38.7,29.64,South,180,17.0,18.0,85,0.04,,,0.18,meteohub,2013-04-18 08:23:00,
2013-04-18 03:29:00,43.0,38.8,29.63,SE,135,16.0,20.0,85,0.04,,,0.18,meteohub,2013-04-18 08:29:00,
2013-04-18 03:34:00,43.0,38.8,29.63,SE,135,20.0,21.0,85,0.02,,,0.18,meteohub,2013-04-18 08:34:00,
2013-04-18 03:39:00,43.3,39.2,29.63,South,180,15.0,21.0,85,0.02,,,0.18,meteohub,2013-04-18 08:39:00,
2013-04-18 03:44:00,43.5,39.4,29.65,SE,135,9.0,21.0,85,0.04,,,0.19,meteohub,2013-04-18 08:44:00,
2013-04-18 03:49:00,43.7,39.6,29.65,South,180,9.0,20.0,85,0.04,,,0.19,meteohub,2013-04-18 08:49:00,
2013-04-18 03:54:00,44.1,39.9,29.65,SE,135,11.0,18.0,85,0.04,,,0.19,meteohub,2013-04-18 08:54:00,
2013-04-18 04:00:00,44.1,39.9,29.63,SE,135,13.0,13.0,85,0.02,,,0.19,meteohub,2013-04-18 09:00:00,
2013-04-18 04:05:00,44.2,40.1,29.63,SE,135,12.0,12.0,85,0.04,,,0.20,meteohub,2013-04-18 09:05:00,
2013-04-18 04:10:00,44.4,40.3,29.63,SE,135,11.0,14.0,85,0.04,,,0.20,meteohub,2013-04-18 09:10:00,
2013-04-18 04:15:00,44.8,40.5,29.63,South,180,5.0,14.0,85,0.02,,,0.20,meteohub,2013-04-18 09:15:00,
2013-04-18 04:20:00,45.0,40.6,29.64,SE,135,4.0,12.0,85,0.02,,,0.20,meteohub,2013-04-18 09:20:00,
2013-04-18 04:25:00,45.1,40.8,29.63,SE,135,8.0,11.0,85,0.02,,,0.20,meteohub,2013-04-18 09:25:00,
2013-04-18 04:31:00,45.3,41.0,29.63,East,90,7.0,10.0,85,0.02,,,0.20,meteohub,2013-04-18 09:31:00,
2013-04-18 04:36:00,45.5,41.5,29.63,SE,135,8.0,8.0,86,0.02,,,0.20,meteohub,2013-04-18 09:36:00,
2013-04-18 04:41:00,45.7,41.7,29.63,SE,135,8.0,8.0,86,0.01,,,0.20,meteohub,2013-04-18 09:41:00,
2013-04-18 04:46:00,45.9,41.9,29.62,SE,135,11.0,11.0,86,0.01,,,0.20,meteohub,2013-04-18 09:46:00,
2013-04-18 04:51:00,46.0,42.1,29.61,SE,135,11.0,11.0,86,0.01,,,0.20,meteohub,2013-04-18 09:51:00,
2013-04-18 04:57:00,46.0,42.1,29.60,ESE,113,8.0,11.0,86,0.01,,,0.20,meteohub,2013-04-18 09:57:00,
2013-04-18 05:02:00,46.2,42.3,29.58,East,90,10.0,11.0,86,0.01,,,0.21,meteohub,2013-04-18 10:02:00,
2013-04-18 05:07:00,46.0,42.1,29.57,SE,135,11.0,13.0,86,0.01,,,0.21,meteohub,2013-04-18 10:07:00,
2013-04-18 05:12:00,46.4,42.4,29.56,East,90,8.0,13.0,86,0.01,,,0.21,meteohub,2013-04-18 10:12:00,
2013-04-18 05:17:00,46.6,42.6,29.57,East,90,8.0,13.0,86,0.01,,,0.21,meteohub,2013-04-18 10:17:00,
2013-04-18 05:22:00,46.6,42.6,29.56,NE,45,8.0,13.0,86,0.01,,,0.21,meteohub,2013-04-18 10:22:00,
2013-04-18 05:27:00,45.9,41.5,29.55,East,90,9.0,11.0,85,0.01,,,0.21,meteohub,2013-04-18 10:27:00,
2013-04-18 05:32:00,45.9,41.5,29.53,East,90,11.0,11.0,85,0.01,,,0.21,meteohub,2013-04-18 10:32:00,
2013-04-18 05:37:00,45.9,41.5,29.53,East,90,9.0,11.0,85,0.01,,,0.21,meteohub,2013-04-18 10:37:00,
2013-04-18 05:42:00,45.9,41.9,29.54,SE,135,5.0,11.0,86,0.01,,,0.21,meteohub,2013-04-18 10:42:00,
2013-04-18 05:47:00,46.0,42.1,29.54,NE,45,8.0,11.0,86,0.01,,,0.21,meteohub,2013-04-18 10:47:00,
2013-04-18 05:52:00,46.4,42.4,29.54,NE,45,9.0,9.0,86,0.01,,,0.21,meteohub,2013-04-18 10:52:00,
2013-04-18 05:57:00,46.4,42.4,29.54,NE,45,9.0,9.0,86,0.01,,,0.21,meteohub,2013-04-18 10:57:00,
2013-04-18 06:02:00,46.8,42.8,29.55,NE,45,12.0,12.0,86,0.00,,,0.21,meteohub,2013-04-18 11:02:00,
2013-04-18 06:07:00,46.9,43.0,29.56,North,0,8.0,13.0,86,0.01,,,0.22,meteohub,2013-04-18 11:07:00,
2013-04-18 06:12:00,46.8,42.8,29.59,WNW,293,6.0,13.0,86,0.01,,,0.22,meteohub,2013-04-18 11:12:00,
2013-04-18 06:17:00,46.6,42.6,29.61,North,0,7.0,13.0,86,0.01,,,0.22,meteohub,2013-04-18 11:17:00,
2013-04-18 06:22:00,46.0,41.7,29.61,North,0,8.0,8.0,85,0.01,,,0.22,meteohub,2013-04-18 11:22:00,
2013-04-18 06:27:00,45.9,41.5,29.62,North,0,8.0,9.0,85,0.02,,,0.24,meteohub,2013-04-18 11:27:00,
2013-04-18 06:32:00,45.3,41.0,29.62,West,270,8.0,10.0,85,0.02,,,0.24,meteohub,2013-04-18 11:32:00,
2013-04-18 06:37:00,44.8,40.5,29.62,North,0,8.0,11.0,85,0.04,,,0.25,meteohub,2013-04-18 11:37:00,
2013-04-18 06:42:00,44.4,40.3,29.60,North,0,9.0,11.0,85,0.06,,,0.27,meteohub,2013-04-18 11:42:00,
2013-04-18 06:47:00,44.2,40.1,29.60,North,0,8.0,11.0,85,0.06,,,0.27,meteohub,2013-04-18 11:47:00,
2013-04-18 06:52:00,43.9,39.7,29.60,North,0,9.0,11.0,85,0.08,,,0.30,meteohub,2013-04-18 11:52:00,
2013-04-18 06:57:00,43.9,39.7,29.60,North,0,11.0,11.0,85,0.09,,,0.31,meteohub,2013-04-18 11:57:00,
2013-04-18 07:02:00,43.9,39.7,29.59,NW,315,10.0,11.0,85,0.09,,,0.31,meteohub,2013-04-18 12:02:00,
2013-04-18 07:07:00,43.9,39.7,29.59,North,0,9.0,12.0,85,0.08,,,0.31,meteohub,2013-04-18 12:07:00,
2013-04-18 07:12:00,43.9,39.7,29.58,North,0,8.0,12.0,85,0.09,,,0.32,meteohub,2013-04-18 12:12:00,
2013-04-18 07:17:00,43.9,39.7,29.59,NNW,338,8.0,12.0,85,0.09,,,0.32,meteohub,2013-04-18 12:17:00,
2013-04-18 07:22:00,44.1,39.9,29.59,North,0,7.0,11.0,85,0.11,,,0.33,meteohub,2013-04-18 12:22:00,
2013-04-18 07:27:00,44.1,39.9,29.60,North,0,5.0,10.0,85,0.09,,,0.33,meteohub,2013-04-18 12:27:00,
2013-04-18 07:32:00,44.1,39.9,29.60,North,0,8.0,8.0,85,0.11,,,0.34,meteohub,2013-04-18 12:32:00,
2013-04-18 07:37:00,44.2,40.1,29.60,North,0,7.0,8.0,85,0.09,,,0.34,meteohub,2013-04-18 12:37:00,
2013-04-18 07:42:00,44.2,40.1,29.60,North,0,5.0,8.0,85,0.08,,,0.35,meteohub,2013-04-18 12:42:00,
2013-04-18 07:47:00,44.2,40.1,29.60,NNE,23,7.0,8.0,85,0.08,,,0.37,meteohub,2013-04-18 12:47:00,
2013-04-18 07:52:00,44.2,40.1,29.60,North,0,8.0,8.0,85,0.07,,,0.37,meteohub,2013-04-18 12:52:00,
2013-04-18 07:57:00,44.2,40.1,29.61,North,0,8.0,8.0,85,0.07,,,0.38,meteohub,2013-04-18 12:57:00,
2013-04-18 08:02:00,44.2,40.1,29.60,North,0,9.0,9.0,85,0.07,,,0.38,meteohub,2013-04-18 13:02:00,
2013-04-18 08:07:00,44.2,40.1,29.61,North,0,10.0,10.0,85,0.07,,,0.38,meteohub,2013-04-18 13:07:00,
2013-04-18 08:12:00,44.2,40.1,29.61,North,0,8.0,10.0,85,0.06,,,0.38,meteohub,2013-04-18 13:12:00,
2013-04-18 08:17:00,44.1,39.9,29.60,North,0,7.0,10.0,85,0.06,,,0.38,meteohub,2013-04-18 13:17:00,
2013-04-18 08:22:00,44.2,40.1,29.60,SW,225,7.0,10.0,85,0.06,,,0.39,meteohub,2013-04-18 13:22:00,
2013-04-18 08:27:00,44.1,39.9,29.59,North,0,9.0,11.0,85,0.06,,,0.39,meteohub,2013-04-18 13:27:00,
2013-04-18 08:32:00,44.1,39.9,29.59,SW,225,9.0,11.0,85,0.05,,,0.39,meteohub,2013-04-18 13:32:00,
2013-04-18 08:37:00,44.1,39.9,29.59,North,0,8.0,11.0,85,0.04,,,0.39,meteohub,2013-04-18 13:37:00,
2013-04-18 08:42:00,43.9,39.7,29.58,North,0,8.0,11.0,85,0.05,,,0.40,meteohub,2013-04-18 13:42:00,
2013-04-18 08:48:00,43.9,39.7,29.59,North,0,11.0,11.0,85,0.04,,,0.40,meteohub,2013-04-18 13:48:00,
2013-04-18 08:53:00,43.7,39.6,29.58,North,0,12.0,12.0,85,0.04,,,0.40,meteohub,2013-04-18 13:53:00,
2013-04-18 08:58:00,43.5,39.4,29.57,North,0,15.0,15.0,85,0.02,,,0.40,meteohub,2013-04-18 13:58:00,
2013-04-18 09:03:00,43.5,39.4,29.56,North,0,12.0,15.0,85,0.02,,,0.40,meteohub,2013-04-18 14:03:00,
2013-04-18 09:08:00,43.3,38.8,29.57,North,0,12.0,15.0,84,0.02,,,0.40,meteohub,2013-04-18 14:08:00,
2013-04-18 09:13:00,43.5,39.4,29.56,North,0,14.0,16.0,85,0.02,,,0.40,meteohub,2013-04-18 14:13:00,
2013-04-18 09:19:00,43.3,38.8,29.56,North,0,14.0,16.0,84,0.02,,,0.40,meteohub,2013-04-18 14:19:00,
2013-04-18 09:24:00,43.3,38.8,29.58,NNE,23,11.0,16.0,84,0.01,,,0.40,meteohub,2013-04-18 14:24:00,
2013-04-18 09:29:00,43.2,38.7,29.58,North,0,8.0,15.0,84,0.01,,,0.40,meteohub,2013-04-18 14:29:00,
2013-04-18 09:34:00,43.2,38.7,29.58,North,0,11.0,14.0,84,0.01,,,0.40,meteohub,2013-04-18 14:34:00,
2013-04-18 09:39:00,43.2,38.7,29.57,North,0,13.0,13.0,84,0.00,,,0.40,meteohub,2013-04-18 14:39:00,
2013-04-18 09:44:00,43.2,38.7,29.56,NNW,338,13.0,14.0,84,0.00,,,0.40,meteohub,2013-04-18 14:44:00,
2013-04-18 09:49:00,43.2,38.7,29.54,NE,45,13.0,14.0,84,0.00,,,0.40,meteohub,2013-04-18 14:49:00,
2013-04-18 09:55:00,43.2,38.7,29.58,North,0,8.0,15.0,84,0.00,,,0.40,meteohub,2013-04-18 14:55:00,
2013-04-18 10:00:00,43.3,38.8,29.57,NE,45,5.0,15.0,84,0.00,,,0.40,meteohub,2013-04-18 15:00:00,
2013-04-18 10:05:00,43.3,38.8,29.57,NE,45,7.0,15.0,84,0.00,,,0.40,meteohub,2013-04-18 15:05:00,
2013-04-18 10:10:00,43.5,39.0,29.57,NE,45,8.0,11.0,84,0.00,,,0.40,meteohub,2013-04-18 15:10:00,
2013-04-18 10:15:00,43.5,39.0,29.57,NNE,23,8.0,9.0,84,0.00,,,0.40,meteohub,2013-04-18 15:15:00,
2013-04-18 10:20:00,43.7,39.2,29.56,NE,45,8.0,10.0,84,0.00,,,0.40,meteohub,2013-04-18 15:20:00,
2013-04-18 10:25:00,43.7,39.2,29.56,NE,45,8.0,11.0,84,0.00,,,0.40,meteohub,2013-04-18 15:25:00,
2013-04-18 10:31:00,43.9,39.4,29.57,NNE,23,9.0,11.0,84,0.00,,,0.40,meteohub,2013-04-18 15:31:00,
2013-04-18 10:36:00,43.9,39.4,29.55,NE,45,9.0,11.0,84,0.00,,,0.40,meteohub,2013-04-18 15:36:00,
2013-04-18 10:41:00,43.9,39.4,29.55,NE,45,7.0,10.0,84,0.00,,,0.40,meteohub,2013-04-18 15:41:00,
2013-04-18 10:46:00,44.1,39.6,29.55,ENE,68,8.0,10.0,84,0.00,,,0.40,meteohub,2013-04-18 15:46:00,
2013-04-18 10:51:00,44.4,39.9,29.54,East,90,11.0,11.0,84,0.00,,,0.40,meteohub,2013-04-18 15:51:00,
2013-04-18 10:56:00,44.2,39.7,29.54,ENE,68,11.0,12.0,84,0.00,,,0.40,meteohub,2013-04-18 15:56:00,
2013-04-18 11:02:00,44.4,39.9,29.55,East,90,10.0,12.0,84,0.00,,,0.40,meteohub,2013-04-18 16:02:00,
2013-04-18 11:07:00,44.2,39.7,29.55,NE,45,8.0,12.0,84,0.00,,,0.40,meteohub,2013-04-18 16:07:00,
2013-04-18 11:12:00,44.4,39.9,29.54,NE,45,11.0,11.0,84,0.00,,,0.40,meteohub,2013-04-18 16:12:00,
2013-04-18 11:17:00,44.6,40.1,29.55,East,90,7.0,11.0,84,0.00,,,0.40,meteohub,2013-04-18 16:17:00,
2013-04-18 11:22:00,44.8,40.3,29.56,East,90,7.0,11.0,84,0.00,,,0.40,meteohub,2013-04-18 16:22:00,
2013-04-18 11:27:00,44.6,40.1,29.56,East,90,7.0,11.0,84,0.00,,,0.40,meteohub,2013-04-18 16:27:00,
2013-04-18 11:32:00,44.6,40.1,29.57,East,90,5.0,10.0,84,0.00,,,0.40,meteohub,2013-04-18 16:32:00,
2013-04-18 11:37:00,45.1,40.6,29.58,NE,45,4.0,8.0,84,0.00,,,0.40,meteohub,2013-04-18 16:37:00,
2013-04-18 11:42:00,45.1,40.6,29.56,East,90,0.0,8.0,84,0.00,,,0.40,meteohub,2013-04-18 16:42:00,
2013-04-18 11:47:00,45.1,40.6,29.55,East,90,0.0,6.0,84,0.00,,,0.40,meteohub,2013-04-18 16:47:00,
2013-04-18 11:52:00,45.3,40.8,29.54,East,90,8.0,8.0,84,0.00,,,0.40,meteohub,2013-04-18 16:52:00,
2013-04-18 11:57:00,45.5,41.0,29.55,SE,135,5.0,9.0,84,0.00,,,0.40,meteohub,2013-04-18 16:57:00,
2013-04-18 12:03:00,45.5,41.0,29.55,SE,135,6.0,9.0,84,0.00,,,0.40,meteohub,2013-04-18 17:03:00,
2013-04-18 12:08:00,45.5,41.0,29.55,ESE,113,5.0,9.0,84,0.00,,,0.40,meteohub,2013-04-18 17:08:00,
2013-04-18 12:13:00,45.5,41.0,29.54,East,90,5.0,8.0,84,0.00,,,0.40,meteohub,2013-04-18 17:13:00,
2013-04-18 12:18:00,46.2,41.7,29.52,East,90,8.0,8.0,84,0.00,,,0.40,meteohub,2013-04-18 17:18:00,
2013-04-18 12:24:00,46.2,41.7,29.51,East,90,9.0,9.0,84,0.00,,,0.40,meteohub,2013-04-18 17:24:00,
2013-04-18 12:29:00,46.6,42.1,29.50,East,90,10.0,10.0,84,0.00,,,0.40,meteohub,2013-04-18 17:29:00,
2013-04-18 12:34:00,46.6,42.1,29.51,East,90,9.0,11.0,84,0.00,,,0.40,meteohub,2013-04-18 17:34:00,
2013-04-18 12:39:00,46.6,42.1,29.49,ENE,68,8.0,11.0,84,0.00,,,0.40,meteohub,2013-04-18 17:39:00,
2013-04-18 12:45:00,46.6,42.1,29.50,East,90,7.0,11.0,84,0.00,,,0.40,meteohub,2013-04-18 17:45:00,
2013-04-18 12:50:00,46.4,41.9,29.50,East,90,9.0,11.0,84,0.00,,,0.40,meteohub,2013-04-18 17:50:00,
2013-04-18 12:55:00,46.4,41.9,29.52,East,90,8.0,10.0,84,0.00,,,0.40,meteohub,2013-04-18 17:55:00,
2013-04-18 13:00:00,46.4,41.9,29.52,NE,45,4.0,9.0,84,0.00,,,0.40,meteohub,2013-04-18 18:00:00,
2013-04-18 13:05:00,46.4,41.9,29.52,ENE,68,6.0,9.0,84,0.00,,,0.40,meteohub,2013-04-18 18:05:00,
2013-04-18 13:10:00,46.6,42.1,29.51,East,90,9.0,9.0,84,0.00,,,0.40,meteohub,2013-04-18 18:10:00,
2013-04-18 13:16:00,46.8,42.3,29.51,NE,45,8.0,9.0,84,0.00,,,0.40,meteohub,2013-04-18 18:16:00,
2013-04-18 13:21:00,46.8,42.3,29.50,NE,45,8.0,10.0,84,0.00,,,0.40,meteohub,2013-04-18 18:21:00,
2013-04-18 13:26:00,47.1,42.6,29.50,NE,45,6.0,10.0,84,0.00,,,0.40,meteohub,2013-04-18 18:26:00,
2013-04-18 13:31:00,47.1,42.6,29.50,East,90,8.0,8.0,84,0.00,,,0.40,meteohub,2013-04-18 18:31:00,
2013-04-18 13:37:00,47.3,42.8,29.49,ENE,68,7.0,8.0,84,0.00,,,0.40,meteohub,2013-04-18 18:37:00,
2013-04-18 13:42:00,47.5,42.8,29.49,ENE,68,8.0,8.0,84,0.00,,,0.40,meteohub,2013-04-18 18:42:00,
2013-04-18 13:47:00,47.5,42.8,29.49,SE,135,8.0,8.0,84,0.00,,,0.40,meteohub,2013-04-18 18:47:00,
2013-04-18 13:52:00,47.7,43.0,29.49,East,90,7.0,9.0,84,0.00,,,0.40,meteohub,2013-04-18 18:52:00,
2013-04-18 13:57:00,47.7,43.0,29.48,East,90,9.0,9.0,84,0.00,,,0.40,meteohub,2013-04-18 18:57:00,
2013-04-18 14:02:00,47.7,43.0,29.48,SE,135,7.0,10.0,84,0.00,,,0.40,meteohub,2013-04-18 19:02:00,
2013-04-18 14:07:00,47.7,43.0,29.47,East,90,10.0,10.0,84,0.00,,,0.40,meteohub,2013-04-18 19:07:00,
2013-04-18 14:12:00,47.8,43.2,29.46,East,90,10.0,11.0,84,0.00,,,0.40,meteohub,2013-04-18 19:12:00,
2013-04-18 14:17:00,47.8,43.2,29.46,East,90,9.0,11.0,84,0.00,,,0.40,meteohub,2013-04-18 19:17:00,
2013-04-18 14:22:00,47.8,43.2,29.45,East,90,11.0,11.0,84,0.00,,,0.40,meteohub,2013-04-18 19:22:00,
2013-04-18 14:27:00,47.8,43.2,29.45,East,90,12.0,13.0,84,0.00,,,0.40,meteohub,2013-04-18 19:27:00,
2013-04-18 14:32:00,47.8,43.2,29.46,East,90,8.0,13.0,84,0.00,,,0.40,meteohub,2013-04-18 19:32:00,
2013-04-18 14:37:00,48.4,43.7,29.46,SE,135,9.0,13.0,84,0.00,,,0.40,meteohub,2013-04-18 19:37:00,
2013-04-18 14:42:00,48.6,43.9,29.46,East,90,8.0,12.0,84,0.00,,,0.40,meteohub,2013-04-18 19:42:00,
2013-04-18 14:47:00,48.7,44.1,29.47,East,90,7.0,10.0,84,0.00,,,0.40,meteohub,2013-04-18 19:47:00,
2013-04-18 14:52:00,48.9,44.2,29.48,ESE,113,8.0,9.0,84,0.00,,,0.40,meteohub,2013-04-18 19:52:00,
2013-04-18 14:57:00,48.9,44.2,29.47,SE,135,8.0,9.0,84,0.00,,,0.40,meteohub,2013-04-18 19:57:00,
2013-04-18 15:02:00,49.1,44.4,29.47,East,90,6.0,9.0,84,0.00,,,0.40,meteohub,2013-04-18 20:02:00,
2013-04-18 15:07:00,49.1,44.4,29.46,East,90,8.0,9.0,84,0.00,,,0.40,meteohub,2013-04-18 20:07:00,
2013-04-18 15:12:00,49.1,44.4,29.47,East,90,8.0,8.0,84,0.00,,,0.40,meteohub,2013-04-18 20:12:00,
2013-04-18 15:17:00,49.1,44.4,29.46,East,90,8.0,9.0,84,0.00,,,0.40,meteohub,2013-04-18 20:17:00,
2013-04-18 15:22:00,49.3,44.6,29.44,East,90,10.0,10.0,84,0.00,,,0.40,meteohub,2013-04-18 20:22:00,
2013-04-18 15:27:00,49.3,44.6,29.44,East,90,10.0,13.0,84,0.00,,,0.40,meteohub,2013-04-18 20:27:00,
2013-04-18 15:32:00,49.6,45.0,29.44,East,90,11.0,13.0,84,0.00,,,0.40,meteohub,2013-04-18 20:32:00,
2013-04-18 15:37:00,49.8,45.1,29.42,East,90,11.0,13.0,84,0.00,,,0.40,meteohub,2013-04-18 20:37:00,
2013-04-18 15:42:00,50.0,45.7,29.41,East,90,13.0,13.0,85,0.00,,,0.40,meteohub,2013-04-18 20:42:00,
2013-04-18 15:47:00,50.0,45.3,29.42,East,90,11.0,13.0,84,0.00,,,0.40,meteohub,2013-04-18 20:47:00,
2013-04-18 15:52:00,50.0,45.7,29.42,ESE,113,10.0,15.0,85,0.00,,,0.40,meteohub,2013-04-18 20:52:00,
2013-04-18 15:57:00,50.0,45.3,29.41,East,90,9.0,15.0,84,0.00,,,0.40,meteohub,2013-04-18 20:57:00,
2013-04-18 16:02:00,50.4,46.0,29.41,East,90,8.0,11.0,85,0.00,,,0.40,meteohub,2013-04-18 21:02:00,
2013-04-18 16:07:00,50.5,46.2,29.40,East,90,12.0,12.0,85,0.00,,,0.40,meteohub,2013-04-18 21:07:00,
2013-04-18 16:12:00,50.7,46.4,29.39,ESE,113,8.0,12.0,85,0.00,,,0.40,meteohub,2013-04-18 21:12:00,
2013-04-18 16:17:00,50.9,46.6,29.39,SE,135,10.0,12.0,85,0.01,,,0.41,meteohub,2013-04-18 21:17:00,
2013-04-18 16:22:00,50.9,46.6,29.38,SE,135,10.0,12.0,85,0.02,,,0.43,meteohub,2013-04-18 21:22:00,
2013-04-18 16:27:00,51.1,46.8,29.37,SE,135,13.0,13.0,85,0.02,,,0.43,meteohub,2013-04-18 21:27:00,
2013-04-18 16:32:00,51.1,46.8,29.38,SE,135,7.0,13.0,85,0.02,,,0.43,meteohub,2013-04-18 21:32:00,
2013-04-18 16:37:00,51.1,46.8,29.38,SE,135,8.0,13.0,85,0.02,,,0.43,meteohub,2013-04-18 21:37:00,
2013-04-18 16:42:00,51.1,46.8,29.37,ESE,113,9.0,13.0,85,0.02,,,0.43,meteohub,2013-04-18 21:42:00,
2013-04-18 16:47:00,51.3,46.9,29.37,ESE,113,8.0,11.0,85,0.02,,,0.43,meteohub,2013-04-18 21:47:00,
2013-04-18 16:52:00,51.4,47.1,29.36,SE,135,9.0,11.0,85,0.02,,,0.43,meteohub,2013-04-18 21:52:00,
2013-04-18 16:57:00,52.2,47.8,29.36,SE,135,8.0,11.0,85,0.02,,,0.43,meteohub,2013-04-18 21:57:00,
2013-04-18 17:02:00,52.5,48.2,29.36,SE,135,11.0,11.0,85,0.02,,,0.43,meteohub,2013-04-18 22:02:00,
2013-04-18 17:07:00,53.6,49.3,29.36,SE,135,9.0,13.0,85,0.04,,,0.44,meteohub,2013-04-18 22:07:00,
2013-04-18 17:12:00,54.7,50.2,29.36,SE,135,11.0,13.0,85,0.02,,,0.44,meteohub,2013-04-18 22:12:00,
2013-04-18 17:17:00,54.7,50.2,29.36,SE,135,10.0,13.0,85,0.04,,,0.45,meteohub,2013-04-18 22:17:00,
2013-04-18 17:22:00,55.9,51.4,29.35,SE,135,11.0,11.0,85,0.04,,,0.46,meteohub,2013-04-18 22:22:00,
2013-04-18 17:27:00,56.5,52.0,29.35,South,180,14.0,14.0,85,0.04,,,0.46,meteohub,2013-04-18 22:27:00,
2013-04-18 17:32:00,57.0,52.5,29.34,South,180,13.0,21.0,85,0.05,,,0.47,meteohub,2013-04-18 22:32:00,
2013-04-18 17:37:00,58.1,53.6,29.34,SW,225,24.0,24.0,85,0.05,,,0.47,meteohub,2013-04-18 22:37:00,
2013-04-18 17:42:00,58.5,54.3,29.34,SW,225,19.0,26.0,86,0.05,,,0.47,meteohub,2013-04-18 22:42:00,
2013-04-18 17:47:00,58.5,54.3,29.34,SW,225,24.0,30.0,86,0.05,,,0.47,meteohub,2013-04-18 22:47:00,
2013-04-18 17:52:00,57.7,53.2,29.35,SW,225,30.0,31.0,85,0.05,,,0.47,meteohub,2013-04-18 22:52:00,
2013-04-18 17:57:00,57.6,52.5,29.35,SW,225,20.0,34.0,83,0.06,,,0.48,meteohub,2013-04-18 22:57:00,
2013-04-18 18:02:00,57.4,51.6,29.34,SW,225,22.0,34.0,81,0.06,,,0.48,meteohub,2013-04-18 23:02:00,
2013-04-18 18:07:00,57.0,50.2,29.34,WSW,248,25.0,31.0,78,0.05,,,0.48,meteohub,2013-04-18 23:07:00,
2013-04-18 18:12:00,56.8,48.9,29.34,SW,225,23.0,28.0,75,0.04,,,0.48,meteohub,2013-04-18 23:12:00,
2013-04-18 18:17:00,56.7,48.7,29.34,SW,225,29.0,29.0,75,0.04,,,0.48,meteohub,2013-04-18 23:17:00,
2013-04-18 18:22:00,56.3,48.9,29.34,SW,225,26.0,29.0,76,0.02,,,0.48,meteohub,2013-04-18 23:22:00,
2013-04-18 18:27:00,55.8,48.4,29.34,SW,225,27.0,29.0,76,0.02,,,0.48,meteohub,2013-04-18 23:27:00,
2013-04-18 18:32:00,54.5,47.1,29.35,NW,315,25.0,30.0,76,0.01,,,0.48,meteohub,2013-04-18 23:32:00,
2013-04-18 18:37:00,53.4,45.0,29.35,WSW,248,30.0,30.0,73,0.01,,,0.48,meteohub,2013-04-18 23:37:00,
2013-04-18 18:42:00,53.4,45.0,29.35,WSW,248,30.0,30.0,73,0.01,,,0.48,meteohub,2013-04-18 23:42:00,
2013-04-18 18:47:00,50.4,42.4,29.36,West,270,29.0,30.0,74,0.01,,,0.48,meteohub,2013-04-18 23:47:00,
2013-04-18 18:52:00,50.4,42.4,29.36,West,270,29.0,30.0,74,0.01,,,0.50,meteohub,2013-04-18 23:52:00,
2013-04-18 18:57:00,49.3,41.7,29.36,SW,225,23.0,30.0,75,0.01,,,0.50,meteohub,2013-04-18 23:57:00,
2013-04-18 19:02:00,49.3,41.7,29.36,SW,225,23.0,29.0,75,0.01,,,0.50,meteohub,2013-04-19 00:02:00,
2013-04-18 19:07:00,48.4,40.8,29.37,North,0,20.0,29.0,75,0.01,,,0.50,meteohub,2013-04-19 00:07:00,
2013-04-18 19:12:00,46.9,38.7,29.37,SW,225,24.0,24.0,73,0.01,,,0.50,meteohub,2013-04-19 00:12:00,
2013-04-18 19:17:00,46.6,38.5,29.38,SW,225,24.0,30.0,73,0.01,,,0.50,meteohub,2013-04-19 00:17:00,
2013-04-18 19:22:00,46.0,38.3,29.38,WSW,248,27.0,30.0,74,0.01,,,0.50,meteohub,2013-04-19 00:22:00,
2013-04-18 19:27:00,45.5,37.4,29.38,SW,225,32.0,32.0,73,0.01,,,0.50,meteohub,2013-04-19 00:27:00,
2013-04-18 19:32:00,45.0,37.2,29.38,WSW,248,32.0,33.0,74,0.01,,,0.50,meteohub,2013-04-19 00:32:00,
2013-04-18 19:37:00,44.6,36.1,29.38,West,270,25.0,34.0,72,0.01,,,0.50,meteohub,2013-04-19 00:37:00,
2013-04-18 19:42:00,44.1,35.2,29.39,West,270,25.0,35.0,71,0.01,,,0.50,meteohub,2013-04-19 00:42:00,
2013-04-18 19:47:00,43.7,34.5,29.39,North,0,27.0,35.0,70,0.00,,,0.50,meteohub,2013-04-19 00:47:00,
2013-04-18 19:52:00,43.3,34.2,29.40,NW,315,33.0,36.0,70,0.00,,,0.50,meteohub,2013-04-19 00:52:00,
2013-04-18 19:57:00,43.2,34.0,29.40,NW,315,34.0,36.0,70,0.00,,,0.50,meteohub,2013-04-19 00:57:00,
2013-04-18 20:02:00,42.8,33.3,29.40,West,270,28.0,36.0,69,0.00,,,0.50,meteohub,2013-04-19 01:02:00,
2013-04-18 20:07:00,42.6,33.1,29.40,NW,315,26.0,34.0,69,0.00,,,0.50,meteohub,2013-04-19 01:07:00,
2013-04-18 20:12:00,42.4,33.1,29.41,West,270,22.0,36.0,69,0.00,,,0.50,meteohub,2013-04-19 01:12:00,
2013-04-18 20:17:00,42.4,33.1,29.41,North,0,27.0,36.0,69,0.00,,,0.50,meteohub,2013-04-19 01:17:00,
2013-04-18 20:22:00,42.3,32.9,29.42,NW,315,24.0,36.0,69,0.00,,,0.50,meteohub,2013-04-19 01:22:00,
2013-04-18 20:27:00,42.1,32.7,29.42,West,270,26.0,27.0,69,0.00,,,0.50,meteohub,2013-04-19 01:27:00,
2013-04-18 20:32:00,41.9,32.2,29.43,WSW,248,33.0,33.0,68,0.00,,,0.50,meteohub,2013-04-19 01:32:00,
2013-04-18 20:37:00,41.9,32.2,29.43,West,270,21.0,33.0,68,0.00,,,0.50,meteohub,2013-04-19 01:37:00,
2013-04-18 20:42:00,41.7,31.6,29.43,WSW,248,24.0,33.0,67,0.00,,,0.50,meteohub,2013-04-19 01:42:00,
2013-04-18 20:47:00,41.5,31.5,29.42,West,270,24.0,33.0,67,0.00,,,0.50,meteohub,2013-04-19 01:47:00,
2013-04-18 20:52:00,41.5,31.5,29.43,West,270,24.0,28.0,67,0.00,,,0.50,meteohub,2013-04-19 01:52:00,
2013-04-18 20:57:00,41.0,31.6,29.44,WNW,293,34.0,34.0,69,0.00,,,0.50,meteohub,2013-04-19 01:57:00,
2013-04-18 21:02:00,40.6,31.3,29.45,West,270,28.0,34.0,69,0.00,,,0.50,meteohub,2013-04-19 02:02:00,
2013-04-18 21:07:00,39.9,30.9,29.44,West,270,26.0,34.0,70,0.00,,,0.50,meteohub,2013-04-19 02:07:00,
2013-04-18 21:12:00,39.0,30.4,29.45,NW,315,30.0,36.0,71,0.00,,,0.50,meteohub,2013-04-19 02:12:00,
2013-04-18 21:17:00,38.7,30.4,29.45,SW,225,23.0,36.0,72,0.00,,,0.50,meteohub,2013-04-19 02:17:00,
2013-04-18 21:22:00,38.5,30.2,29.45,WSW,248,23.0,36.0,72,0.00,,,0.50,meteohub,2013-04-19 02:22:00,
2013-04-18 21:27:00,38.1,29.8,29.45,West,270,17.0,32.0,72,0.00,,,0.50,meteohub,2013-04-19 02:27:00,
2013-04-18 21:32:00,37.9,29.1,29.45,West,270,24.0,30.0,70,0.00,,,0.50,meteohub,2013-04-19 02:32:00,
2013-04-18 21:37:00,37.9,28.8,29.45,West,270,20.0,31.0,69,0.00,,,0.50,meteohub,2013-04-19 02:37:00,
2013-04-18 21:42:00,37.8,28.6,29.44,WSW,248,24.0,31.0,69,0.00,,,0.50,meteohub,2013-04-19 02:42:00,
2013-04-18 21:47:00,37.6,28.8,29.44,West,270,27.0,31.0,70,0.00,,,0.50,meteohub,2013-04-19 02:47:00,
2013-04-18 21:52:00,37.4,28.6,29.43,West,270,32.0,32.0,70,0.00,,,0.50,meteohub,2013-04-19 02:52:00,
2013-04-18 21:57:00,37.2,28.4,29.44,WSW,248,21.0,32.0,70,0.00,,,0.50,meteohub,2013-04-19 02:57:00,
2013-04-18 22:02:00,37.0,28.2,29.43,West,270,21.0,33.0,70,0.00,,,0.50,meteohub,2013-04-19 03:02:00,
2013-04-18 22:07:00,37.0,28.2,29.43,West,270,21.0,33.0,70,0.00,,,0.50,meteohub,2013-04-19 03:07:00,
2013-04-18 22:12:00,37.0,27.9,29.42,SW,225,26.0,33.0,69,0.00,,,0.50,meteohub,2013-04-19 03:12:00,
2013-04-18 22:17:00,36.9,27.3,29.42,NW,315,27.0,27.0,68,0.00,,,0.50,meteohub,2013-04-19 03:17:00,
2013-04-18 22:22:00,36.7,27.1,29.42,NW,315,27.0,31.0,68,0.00,,,0.50,meteohub,2013-04-19 03:22:00,
2013-04-18 22:27:00,36.5,27.0,29.41,West,270,26.0,31.0,68,0.00,,,0.50,meteohub,2013-04-19 03:27:00,
2013-04-18 22:32:00,36.3,27.1,29.41,West,270,25.0,34.0,69,0.00,,,0.50,meteohub,2013-04-19 03:32:00,
2013-04-18 22:37:00,36.3,27.5,29.42,NW,315,26.0,34.0,70,0.00,,,0.50,meteohub,2013-04-19 03:37:00,
2013-04-18 22:42:00,36.0,27.1,29.42,West,270,30.0,30.0,70,0.00,,,0.50,meteohub,2013-04-19 03:42:00,
2013-04-18 22:47:00,35.6,27.5,29.42,SW,225,27.0,30.0,72,0.00,,,0.50,meteohub,2013-04-19 03:47:00,
2013-04-18 22:52:00,35.4,27.7,29.42,WSW,248,26.0,30.0,73,0.00,,,0.50,meteohub,2013-04-19 03:52:00,
2013-04-18 22:57:00,35.4,27.7,29.42,West,270,33.0,33.0,73,0.00,,,0.50,meteohub,2013-04-19 03:57:00,
2013-04-18 23:01:00,35.4,27.7,29.42,West,270,19.0,33.0,73,0.00,,,0.50,meteohub,2013-04-19 04:01:00,
2013-04-18 23:02:00,35.2,27.5,29.42,NW,315,25.0,33.0,73,0.00,,,0.50,meteohub,2013-04-19 04:02:00,
2013-04-18 23:06:00,35.2,27.9,29.42,West,270,23.0,33.0,74,0.00,,,0.50,meteohub,2013-04-19 04:06:00,
2013-04-18 23:11:00,35.2,27.5,29.42,NW,315,23.0,33.0,73,0.00,,,0.50,meteohub,2013-04-19 04:11:00,
2013-04-18 23:12:00,35.1,27.3,29.43,SW,225,21.0,33.0,73,0.00,,,0.50,meteohub,2013-04-19 04:12:00,
2013-04-18 23:18:00,35.1,27.0,29.42,West,270,19.0,29.0,72,0.00,,,0.50,meteohub,2013-04-19 04:18:00,
2013-04-18 23:23:00,34.9,26.8,29.42,West,270,20.0,29.0,72,0.00,,,0.50,meteohub,2013-04-19 04:23:00,
2013-04-18 23:28:00,34.9,26.1,29.42,NW,315,25.0,27.0,70,0.00,,,0.50,meteohub,2013-04-19 04:28:00,
2013-04-18 23:33:00,35.1,25.9,29.42,NW,315,17.0,32.0,69,0.00,,,0.50,meteohub,2013-04-19 04:33:00,
2013-04-18 23:38:00,34.9,25.7,29.42,NW,315,21.0,32.0,69,0.00,,,0.50,meteohub,2013-04-19 04:38:00,
2013-04-18 23:43:00,34.9,26.1,29.42,NW,315,15.0,32.0,70,0.00,,,0.50,meteohub,2013-04-19 04:43:00,
2013-04-18 23:48:00,34.9,25.7,29.41,SW,225,23.0,30.0,69,0.00,,,0.50,meteohub,2013-04-19 04:48:00,
2013-04-18 23:53:00,34.7,25.9,29.41,West,270,19.0,27.0,70,0.00,,,0.50,meteohub,2013-04-19 04:53:00,
2013-04-18 23:58:00,34.7,25.9,29.41,West,270,18.0,27.0,70,0.00,,,0.50,meteohub,2013-04-19 04:58:00,